Total_Precipitation_Accumulation
0.00 0.00 0.00 0.00 0.00 0.00 0.01 0.03 0.04 0.07 0.12 0.12 0.15 0.18 0.17 0.15 0.25 0.53 0.24 0.11 0.06 0.01 0.00 0.01 0.01 0.02 0.03 0.04 0.05 0.06 0.07 0.07 0.07 0.06 0.05 0.05 0.06 0.06 0.07 0.06 0.07 0.10 0.12 0.11 0.09 0.08 0.06 0.04 0.03
0.00 0.00 0.00 0.00 0.00 0.00 0.01 0.02 0.05 0.06 0.08 0.09 0.12 0.13 0.12 0.12 0.09 0.08 0.04 0.05 0.05 0.01 0.00 0.00 0.01 0.02 0.02 0.03 0.04 0.06 0.06 0.06 0.06 0.05 0.05 0.05 0.05 0.06 0.07 0.07 0.09 0.13 0.16 0.13 0.09 0.06 0.03 0.02 0.01
0.00 0.00 0.00 0.00 0.00 0.00 0.02 0.04 0.05 0.05 0.07 0.09 0.12 0.24 0.25 0.13 0.07 0.05 0.03 0.03 0.04 0.01 0.00 0.00 0.01 0.02 0.02 0.02 0.02 0.04 0.05 0.05 0.05 0.05 0.04 0.05 0.05 0.05 0.08 0.11 0.15 0.16 0.16 0.16 0.13 0.08 0.05 0.02 0.01
0.00 0.00 0.00 0.00 0.00 0.00 0.02 0.05 0.06 0.04 0.04 0.07 0.11 0.29 0.39 0.13 0.08 0.06 0.03 0.03 0.03 0.02 0.00 0.01 0.01 0.02 0.02 0.02 0.02 0.04 0.05 0.05 0.05 0.05 0.05 0.06 0.06 0.07 0.10 0.18 0.23 0.22 0.19 0.22 0.21 0.16 0.11 0.04 0.02
0.00 0.00 0.00 0.00 0.00 0.00 0.01 0.03 0.06 0.04 0.03 0.03 0.06 0.22 0.37 0.17 0.06 0.05 0.04 0.03 0.03 0.03 0.01 0.01 0.02 0.03 0.02 0.01 0.02 0.04 0.05 0.07 0.09 0.09 0.08 0.08 0.07 0.09 0.14 0.22 0.24 0.23 0.22 0.23 0.20 0.14 0.07 0.05 0.06
0.00 0.00 0.00 0.00 0.00 0.01 0.00 0.01 0.04 0.04 0.03 0.04 0.06 0.17 0.35 0.25 0.15 0.09 0.08 0.06 0.04 0.04 0.01 0.01 0.03 0.04 0.03 0.03 0.04 0.06 0.07 0.09 0.11 0.11 0.10 0.08 0.07 0.09 0.14 0.18 0.22 0.23 0.20 0.16 0.12 0.10 0.08 0.09 0.09
0.00 0.00 0.00 0.00 0.00 0.01 0.01 0.02 0.03 0.04 0.05 0.05 0.09 0.17 0.35 0.33 0.23 0.17 0.14 0.12 0.07 0.06 0.05 0.04 0.04 0.04 0.05 0.07 0.08 0.09 0.09 0.09 0.10 0.10 0.08 0.06 0.06 0.09 0.12 0.16 0.21 0.21 0.14 0.10 0.09 0.07 0.06 0.06 0.06
0.00 0.00 0.00 0.00 0.00 0.01 0.02 0.03 0.04 0.06 0.09 0.06 0.08 0.19 0.48 0.53 0.30 0.23 0.23 0.25 0.20 0.14 0.14 0.16 0.11 0.06 0.04 0.05 0.08 0.08 0.09 0.09 0.08 0.07 0.05 0.06 0.09 0.10 0.13 0.12 0.13 0.13 0.08 0.05 0.04 0.02 0.01 0.01 0.01
0.00 0.00 0.00 0.00 0.00 0.01 0.02 0.04 0.05 0.05 0.07 0.06 0.06 0.12 0.40 0.47 0.34 0.26 0.26 0.26 0.31 0.34 0.31 0.28 0.19 0.08 0.06 0.05 0.05 0.07 0.07 0.07 0.06 0.05 0.06 0.09 0.13 0.14 0.16 0.10 0.09 0.06 0.04 0.02 0.01 0.01 0.01 0.01 0.01
0.00 0.00 0.00 0.00 0.00 0.01 0.01 0.02 0.03 0.04 0.04 0.06 0.08 0.10 0.22 0.29 0.29 0.28 0.28 0.26 0.29 0.47 0.46 0.27 0.21 0.13 0.10 0.08 0.07 0.08 0.06 0.04 0.05 0.09 0.07 0.13 0.21 0.25 0.19 0.15 0.09 0.05 0.04 0.03 0.02 0.01 0.01 0.01 0.01
0.00 0.00 0.00 0.00 0.00 0.00 0.00 0.01 0.02 0.04 0.05 0.06 0.09 0.16 0.19 0.24 0.28 0.36 0.35 0.31 0.26 0.27 0.23 0.19 0.23 0.22 0.21 0.22 0.22 0.20 0.17 0.14 0.12 0.17 0.16 0.19 0.19 0.15 0.13 0.15 0.11 0.08 0.06 0.07 0.07 0.04 0.03 0.02 0.03
0.00 0.00 0.00 0.00 0.00 0.00 0.00 0.00 0.01 0.03 0.03 0.06 0.10 0.22 0.30 0.36 0.41 0.45 0.50 0.51 0.49 0.36 0.27 0.22 0.21 0.23 0.25 0.28 0.33 0.37 0.34 0.30 0.24 0.20 0.16 0.19 0.26 0.27 0.21 0.21 0.18 0.17 0.16 0.16 0.13 0.11 0.08 0.06 0.05
0.00 0.00 0.00 0.00 0.00 0.00 0.00 0.00 0.00 0.01 0.03 0.04 0.07 0.18 0.27 0.35 0.42 0.55 0.62 0.75 0.82 0.64 0.43 0.34 0.28 0.27 0.31 0.37 0.36 0.31 0.35 0.36 0.41 0.33 0.24 0.30 0.30 0.28 0.27 0.23 0.23 0.20 0.21 0.22 0.19 0.14 0.13 0.12 0.09
0.00 0.00 0.00 0.00 0.00 0.00 0.00 0.00 0.00 0.01 0.01 0.02 0.06 0.12 0.20 0.26 0.39 0.62 0.79 0.93 1.09 0.95 0.62 0.48 0.40 0.38 0.44 0.53 0.53 0.44 0.40 0.39 0.43 0.44 0.37 0.40 0.39 0.35 0.33 0.34 0.36 0.33 0.31 0.33 0.28 0.23 0.21 0.20 0.17
0.00 0.00 0.00 0.00 0.00 0.00 0.00 0.00 0.01 0.01 0.01 0.02 0.05 0.10 0.20 0.32 0.43 0.69 1.02 1.19 1.45 1.24 0.91 0.77 0.61 0.59 0.59 0.64 0.72 0.74 0.64 0.62 0.61 0.57 0.54 0.55 0.47 0.46 0.46 0.51 0.53 0.50 0.48 0.47 0.41 0.39 0.34 0.31 0.28
0.00 0.00 0.00 0.00 0.00 0.00 0.00 0.01 0.02 0.01 0.01 0.02 0.04 0.10 0.24 0.40 0.57 0.75 1.09 1.28 1.49 1.35 1.14 1.07 0.89 0.78 0.76 0.69 0.68 0.73 0.76 0.79 0.80 0.76 0.74 0.69 0.63 0.62 0.71 0.78 0.79 0.77 0.74 0.71 0.72 0.64 0.56 0.50 0.46
0.00 0.00 0.00 0.00 0.00 0.00 0.01 0.03 0.03 0.02 0.02 0.03 0.05 0.11 0.25 0.39 0.50 0.73 1.08 1.30 1.44 1.37 1.17 1.10 1.12 0.98 0.92 0.88 0.85 0.92 0.97 0.98 1.03 1.06 1.03 1.00 0.95 0.98 1.10 1.23 1.20 1.09 1.02 0.98 0.91 0.85 0.78 0.72 0.66
0.00 0.00 0.00 0.00 0.00 0.00 0.02 0.04 0.04 0.03 0.03 0.07 0.10 0.14 0.24 0.38 0.59 0.83 1.10 1.42 1.49 1.50 1.44 1.31 1.30 1.24 1.24 1.25 1.14 1.17 1.23 1.26 1.33 1.44 1.54 1.65 1.74 1.74 1.76 1.68 1.54 1.42 1.35 1.29 1.17 1.06 0.92 0.82 0.75
0.00 0.00 0.00 0.00 0.01 0.01 0.03 0.04 0.06 0.06 0.07 0.11 0.19 0.29 0.41 0.44 0.61 0.94 1.16 1.52 1.82 1.72 1.71 1.57 1.49 1.56 1.59 1.62 1.63 1.79 1.83 1.90 2.13 2.36 2.52 2.64 2.64 2.49 2.40 2.29 2.11 1.88 1.69 1.52 1.31 1.14 0.98 0.84 0.72
0.00 0.00 0.01 0.02 0.02 0.03 0.04 0.08 0.10 0.10 0.13 0.21 0.35 0.46 0.65 0.78 0.81 1.02 1.30 1.61 1.85 1.85 1.80 1.78 1.84 1.87 1.98 2.24 2.58 2.92 3.12 3.28 3.40 3.56 3.60 3.52 3.35 3.20 3.06 2.85 2.54 2.24 1.98 1.67 1.38 1.14 0.96 0.83 0.72
0.00 0.00 0.02 0.03 0.06 0.08 0.09 0.16 0.19 0.16 0.16 0.22 0.39 0.49 0.62 0.81 0.94 0.93 1.02 1.21 1.51 1.71 1.83 1.89 2.13 2.38 2.66 3.12 3.60 3.96 4.31 4.50 4.45 4.27 4.07 3.85 3.65 3.43 3.11 2.85 2.63 2.33 1.95 1.62 1.34 1.10 0.94 0.77 0.63
0.00 0.00 0.01 0.03 0.06 0.14 0.13 0.25 0.30 0.26 0.24 0.24 0.29 0.35 0.45 0.50 0.63 0.78 0.89 1.02 1.25 1.48 1.70 1.91 2.22 2.69 3.29 3.95 4.51 4.91 5.09 5.07 4.97 4.72 4.37 3.97 3.65 3.32 2.94 2.63 2.30 1.97 1.66 1.39 1.12 0.86 0.70 0.58 0.47
0.00 0.00 0.01 0.03 0.04 0.11 0.12 0.28 0.42 0.37 0.32 0.31 0.32 0.31 0.34 0.40 0.45 0.59 0.71 0.87 1.09 1.29 1.59 1.94 2.36 2.97 3.55 4.10 4.59 4.95 5.07 4.96 4.71 4.33 3.91 3.45 3.06 2.72 2.37 2.04 1.75 1.47 1.20 0.95 0.71 0.55 0.46 0.41 0.36
0.00 0.00 0.01 0.03 0.05 0.12 0.13 0.24 0.49 0.59 0.51 0.44 0.39 0.38 0.39 0.44 0.50 0.55 0.59 0.70 0.89 1.14 1.47 1.82 2.22 2.73 3.19 3.54 3.97 4.20 4.31 4.23 3.92 3.47 2.96 2.52 2.22 1.95 1.70 1.44 1.21 1.00 0.79 0.63 0.51 0.40 0.35 0.33 0.32
0.00 0.00 0.02 0.03 0.05 0.11 0.13 0.29 0.55 0.78 0.71 0.59 0.47 0.43 0.41 0.45 0.49 0.54 0.58 0.63 0.77 0.99 1.30 1.52 1.80 2.16 2.46 2.77 3.10 3.24 3.20 3.04 2.83 2.53 2.20 1.88 1.59 1.34 1.12 0.91 0.75 0.61 0.49 0.42 0.38 0.35 0.31 0.27 0.25
0.00 0.00 0.01 0.02 0.05 0.12 0.23 0.44 0.62 0.72 0.67 0.54 0.44 0.35 0.35 0.37 0.40 0.51 0.63 0.68 0.78 0.88 1.06 1.23 1.35 1.51 1.65 1.78 1.93 1.96 1.91 1.81 1.75 1.62 1.42 1.22 0.99 0.76 0.62 0.52 0.45 0.40 0.35 0.31 0.28 0.25 0.23 0.20 0.17
0.00 0.00 0.01 0.01 0.03 0.14 0.36 0.56 0.77 0.76 0.67 0.49 0.42 0.34 0.33 0.35 0.36 0.42 0.54 0.67 0.72 0.75 0.79 0.80 0.80 0.85 0.88 0.90 0.98 1.03 1.03 1.01 0.95 0.88 0.77 0.68 0.59 0.50 0.41 0.34 0.31 0.29 0.26 0.23 0.19 0.17 0.15 0.14 0.14
0.00 0.01 0.01 0.02 0.07 0.17 0.34 0.55 0.81 1.03 0.96 0.77 0.61 0.48 0.42 0.40 0.42 0.47 0.51 0.55 0.58 0.56 0.53 0.50 0.52 0.52 0.48 0.46 0.47 0.49 0.53 0.53 0.51 0.49 0.47 0.43 0.39 0.34 0.28 0.23 0.19 0.17 0.15 0.13 0.13 0.12 0.11 0.12 0.12
0.01 0.01 0.02 0.04 0.08 0.18 0.38 0.70 0.86 1.08 1.09 1.00 0.82 0.64 0.54 0.55 0.57 0.58 0.57 0.50 0.49 0.47 0.43 0.40 0.42 0.38 0.34 0.33 0.33 0.30 0.28 0.28 0.26 0.25 0.25 0.24 0.22 0.19 0.17 0.15 0.13 0.12 0.12 0.12 0.12 0.13 0.13 0.14 0.14
0.03 0.03 0.03 0.05 0.07 0.11 0.35 0.91 1.13 1.32 1.31 1.18 1.08 0.95 0.83 0.78 0.74 0.70 0.64 0.53 0.46 0.41 0.37 0.34 0.32 0.29 0.27 0.23 0.20 0.19 0.18 0.17 0.16 0.16 0.16 0.14 0.13 0.12 0.12 0.12 0.12 0.12 0.12 0.12 0.13 0.13 0.13 0.14 0.14